FW1969 Weather Reports


time (UTC)temp
C
wind
direction
speed
KPH
gust
KPH
rain 1hr
cm
rain 24hr
cm
rain mn
cm
humidity
%
barometer
mb
20260906100052 23 66 3.2 14.5 0.00 0.00 0.00 56 1006.7
20260906094547 23 73 3.2 8.0 0.00 0.03 0.00 56 1006.7
20260906093042 23 74 4.8 9.7 0.00 0.03 0.00 56 1006.5
20260906091544 23 75 3.2 9.7 0.00 0.03 0.00 56 1006.4
20260906090040 23 76 6.4 9.7 0.00 0.03 0.00 56 1006.4
20260906084539 23 77 4.8 11.3 0.00 0.05 0.00 55 1006.3
20260906083038 23 78 6.4 9.7 0.00 0.05 0.00 56 1006.4
20260906081536 24 78 3.2 9.7 0.00 0.05 0.00 56 1006.3
20260906080037 24 79 4.8 8.0 0.00 0.05 0.00 56 1006.3
20260906074535 24 80 1.6 4.8 0.00 0.05 0.00 56 1006.4
20260906073033 24 80 1.6 8.0 0.00 0.05 0.00 56 1006.3
20260906071531 25 80 1.6 6.4 0.00 0.05 0.00 55 1006.3
20260906070030 25 80 3.2 6.4 0.00 0.05 0.00 55 1006.5
20260906064529 25 80 0.0 6.4 0.00 0.05 0.00 55 1006.5
20260906063028 25 80 1.6 8.0 0.00 0.05 0.00 55 1006.4
20260906061526 25 80 3.2 9.7 0.00 0.05 0.00 55 1006.6
20260906060027 26 81 1.6 6.4 0.00 0.05 0.00 55 1006.7
20260906054536 26 81 3.2 11.3 0.00 0.05 0.00 54 1006.6
20260906053020 26 81 1.6 6.4 0.00 0.05 0.00 54 1006.5
20260906051517 26 81 4.8 8.0 0.00 0.05 0.00 54 1006.4
20260906050015 26 81 3.2 6.4 0.00 0.05 0.00 54 1006.4
20260906044513 27 81 3.2 8.0 0.00 0.05 0.00 53 1006.3
20260906043016 27 81 0.0 6.4 0.00 0.05 0.00 53 1006.2
20260906041509 27 81 0.0 8.0 0.00 0.05 0.00 52 1006.2
20260906040022 27 96 4.8 9.7 0.00 0.05 0.00 51 1006.3
20260906034513 27 98 1.6 19.3 0.00 0.05 0.05 51 1006.2
20260906033021 27 154 0.0 8.0 0.00 0.05 0.05 50 1005.8
20260906031509 28 154 0.0 0.0 0.00 0.05 0.05 49 1005.8
20260906030005 28 154 0.0 0.0 0.00 0.05 0.05 49 1005.9
20260906024504 28 154 0.0 3.2 0.00 0.05 0.05 49 1006.0
20260906023004 28 154 0.0 3.2 0.00 0.05 0.05 48 1005.9
20260906021504 28 154 0.0 4.8 0.00 0.05 0.05 47 1005.8
20260906020002 28 154 4.8 9.7 0.00 0.05 0.05 47 1005.4
20260906014502 28 154 0.0 3.2 0.00 0.05 0.05 46 1005.4
20260906013002 28 154 0.0 9.7 0.00 0.05 0.05 46 1004.9
20260906011601 29 154 1.6 8.0 0.00 0.05 0.05 45 1004.8
20260906010100 29 154 3.2 9.7 0.00 0.05 0.05 44 1004.8
20260906004600 29 154 6.4 12.9 0.00 0.05 0.05 42 1004.8
20260906003059 30 159 6.4 11.3 0.00 0.05 0.05 42 1004.8
20260906001607 30 137 6.4 11.3 0.00 0.05 0.05 41 1005.1
20260906000058 31 139 3.2 8.0 0.00 0.05 0.05 41 1005.2
20260905234557 31 143 8.0 16.1 0.00 0.05 0.05 39 1005.4
20260905233102 33 348 4.8 8.0 0.00 0.05 0.05 39 1005.5
20260905231556 33 346 4.8 14.5 0.00 0.05 0.05 38 1005.4
20260905224615 34 306 6.4 14.5 0.00 0.05 0.05 35 1004.9
20260905223105 35 309 4.8 12.9 0.00 0.05 0.05 35 1004.6
20260905221552 35 289 3.2 12.9 0.00 0.05 0.05 35 1004.7
20260905220051 34 286 4.8 11.3 0.00 0.05 0.05 35 1004.7
20260905214551 35 275 4.8 11.3 0.00 0.05 0.05 34 1004.9
20260905213052 35 273 0.0 11.3 0.00 0.05 0.05 34 1004.9
20260905211550 35 236 6.4 14.5 0.00 0.05 0.05 33 1005.0
20260905210053 35 320 1.6 14.5 0.00 0.05 0.05 33 1005.0
20260905204545 36 266 6.4 17.7 0.00 0.05 0.05 31 1005.3
20260905203040 36 257 8.0 16.1 0.00 0.05 0.05 31 1005.5
20260905201537 36 325 3.2 16.1 0.00 0.05 0.05 31 1005.7
20260905200035 36 23 6.4 16.1 0.00 0.05 0.05 31 1005.9
20260905194533 36 294 4.8 12.9 0.00 0.05 0.05 31 1006.0
20260905193031 35 320 6.4 16.1 0.00 0.05 0.05 31 1006.3
20260905191528 35 217 4.8 14.5 0.00 0.05 0.05 30 1006.4
20260905190027 35 202 4.8 11.3 0.00 0.05 0.05 32 1006.6
20260905184530 35 196 1.6 11.3 0.00 0.05 0.05 32 1006.8
20260905183025 34 178 3.2 9.7 0.00 0.05 0.05 33 1007.1
20260905181523 34 223 0.0 6.4 0.00 0.05 0.05 32 1007.2
20260905180020 33 204 0.0 8.0 0.00 0.05 0.05 34 1007.3
20260905174524 33 204 4.8 12.9 0.00 0.05 0.05 34 1007.5
20260905173017 32 165 4.8 12.9 0.00 0.05 0.05 36 1007.5
20260905171515 32 162 3.2 9.7 0.00 0.05 0.05 37 1007.6
20260905170012 32 167 4.8 12.9 0.00 0.05 0.05 37 1008.0
20260905164514 31 166 6.4 16.1 0.00 0.05 0.05 38 1008.4
20260905163006 31 159 4.8 12.9 0.00 0.05 0.05 38 1008.5
20260905161505 31 170 8.0 14.5 0.00 0.05 0.05 39 1008.5
20260905160058 30 166 4.8 14.5 0.00 0.05 0.05 42 1008.5
20260905154607 30 157 9.7 16.1 0.00 0.05 0.05 42 1008.6
20260905153052 30 141 6.4 17.7 0.00 0.05 0.05 42 1008.6
20260905151547 28 144 8.0 19.3 0.00 0.05 0.05 46 1008.5
20260905150043 28 144 9.7 17.7 0.00 0.05 0.05 46 1008.8
20260905144540 27 147 4.8 20.9 0.00 0.05 0.05 47 1008.9
20260905143037 28 134 1.6 12.9 0.00 0.05 0.05 47 1009.0
20260905141533 27 90 3.2 19.3 0.00 0.05 0.05 49 1009.2
20260905140030 26 118 3.2 12.9 0.00 0.05 0.05 50 1009.3
20260905134528 26 139 4.8 17.7 0.00 0.05 0.05 50 1009.5
20260905133035 25 57 4.8 16.1 0.00 0.05 0.05 51 1009.7
20260905131527 24 28 11.3 24.1 0.00 0.05 0.05 54 1009.7
20260905130020 23 51 12.9 24.1 0.00 0.05 0.05 55 1009.4
20260905124518 24 52 8.0 20.9 0.00 0.05 0.05 56 1009.8
20260905123016 24 39 9.7 24.1 0.00 0.05 0.05 56 1009.4
20260905121512 23 127 3.2 11.3 0.00 0.05 0.05 56 1008.7
20260905120007 24 98 6.4 14.5 0.00 0.05 0.05 56 1008.5
20260905114505 24 49 3.2 14.5 0.00 0.05 0.05 55 1008.4
20260905113002 25 49 6.4 14.5 0.00 0.05 0.05 55 1008.1
20260905111601 25 47 4.8 20.9 0.00 0.05 0.05 55 1008.0
20260905110100 25 59 6.4 14.5 0.00 0.05 0.05 55 1008.0
20260905104557 25 22 6.4 19.3 0.00 0.05 0.05 55 1007.8
20260905103058 26 350 0.0 4.8 0.00 0.05 0.05 55 1007.0
20260905101600 26 350 0.0 4.8 0.00 0.05 0.05 54 1006.8